Location: La Comballaz
(46.3780°N, 7.0817°E)
Time: 19:31:10
(UTC+00:00)

N. Korean satellite - Pass Details

Date: 13 December 2021
Orbit: 446 x 492 km, 97.3° (Epoch: 18 January)

Event Time Altitude Azimuth Distance (km) Brightness Sun altitude
Rises 05:08:57 0° 8° (N) 2,461 10.1 -19.4°
Enters shadow 05:10:25 - 5° (N) 1,834 9.4 -19.1°
Exits shadow 05:16:22 21° 215° (SW) 1,076 8.1 -18.1°
Drops below altitude 10° 05:17:37 10° 209° (SSW) 1,581 9.0 -17.9°
Sets 05:19:40 0° 204° (SSW) 2,454 10.1 -17.6°
